Station 44078 - OOI Irminger Sea Surface Mooring Image indicating link to RSS feed of recent meteorological observations for station 44078


Conditions at 44078 as of
0110 GMT on 10/05/2023:
     

Click on the graph icon in the table below to see a time series plot of the last five days of that observation.

5-day plot - Wind Direction Wind Direction (WDIR):NNE ( 20 deg true )
5-day plot - Wind Speed Wind Speed (WSPD): 19.4 kts
5-day plot - Atmospheric Pressure Atmospheric Pressure (PRES):29.86 in
5-day plot - Air Temperature Air Temperature (ATMP): 42.1 °F
5-day plot - Water Temperature Water Temperature (WTMP): 44.4 °F
5-day plot - Salinity Salinity (SAL): 34.85 psu
5-day plot - Wind Chill Wind Chill (CHILL): 32.7 °F
5-day plot - Wind Speed at 10 Meters Wind Speed at 10 meters (WSPD10M): 19.4 kts
5-day plot - Wind Speed at 20 Meters Wind Speed at 20 meters (WSPD20M): 21.4 kts
5-day plot -  Wind Speed, Wind Gust and Atmospheric Pressure Combined plot of Wind Speed, Gust, and Air Pressure
Previous observations
TIME
(GMT)
5-day plot - Wind Direction
WDIR
 
5-day plot - Wind Speed
WSPD
kts
5-day plot - Wind Gust
GST
kts
5-day plot - Wave Height
WVHT
ft
5-day plot - Dominant Wave Period
DPD
sec
5-day plot - Average Wave Period
APD
sec
5-day plot - Mean Wave Direction
MWD
 
5-day plot - Atmospheric Pressure
PRES
in
5-day plot - Pressure Tendency
PTDY
in
5-day plot - Air Temperature
ATMP
°F
5-day plot - Water Temperature
WTMP
°F
5-day plot - Dew Point
DEWP
°F
5-day plot - Salinity
SAL
psu
5-day plot - Visibility
VIS
nmi
5-day plot - Tide (above MLLW)
TIDE
ft
2023-10-05 0100NNE 17.5-----29.87-0.08 42.3 44.4- 34.85--
2023-10-05 0050 N 17.5-----29.86- 42.1 44.2- 34.85--
2023-10-05 0040 N 17.5-----29.87- 41.4 44.2- 34.85--
2023-10-05 0030 N 17.5-----29.87- 40.6 44.2- 34.85--
2023-10-05 0020 N 19.4-----29.87- 40.3 44.2- 34.85--
2023-10-05 0010 N 23.3-----29.88- 39.7 44.2- 34.85--
2023-10-05 0000 N 21.4-----29.89-0.06 39.2 44.2- 34.84--
2023-10-04 2350 N 19.4-----29.90- 38.3 44.2- 34.84--
2023-10-04 2340 N 21.4-----29.91- 37.8 44.2- 34.84--
2023-10-04 2330 N 23.3-----29.91- 37.8 44.2- 34.84--
2023-10-04 2320 N 23.3-----29.92- 37.9 44.2- 34.84--
2023-10-04 2310 N 23.3-----29.93- 38.5 44.2- 34.84--
2023-10-04 2300 N 21.4-----29.93- 39.0 44.2- 34.84--
2023-10-04 2250 N 23.3-----29.94- 39.0 44.2- 34.84--
2023-10-04 2240 N 21.4-----29.93- 39.2 44.2- 34.84--
2023-10-04 2230 N 23.3-----29.94- 39.2 44.2- 34.84--
2023-10-04 2220NNE 21.4-----29.95- 39.9 44.2- 34.84--
2023-10-04 2210 N 19.4-----29.94- 40.6 44.2- 34.84--
2023-10-04 2200 N 21.4-----29.95- 40.8 44.2- 34.84--
2023-10-04 2150 N 19.4-----29.95- 40.8 44.2- 34.84--
2023-10-04 2140NNE 19.4-----29.95- 40.6 44.2- 34.84--
2023-10-04 2130NNE 19.4-----29.95- 40.6 44.2- 34.84--
2023-10-04 2120NNE 19.4-----29.95- 40.8 44.2- 34.84--
2023-10-04 2110NNE 17.5-----29.95- 41.0 44.2- 34.84--
2023-10-04 2100NNE 21.4-----29.95- 40.6 44.2- 34.84--
2023-10-04 2050NNE 19.4-----29.95- 40.8 44.2- 34.84--
2023-10-04 2040NNE 19.4-----29.96- 40.8 44.2- 34.84--
2023-10-04 2030NNE 21.4-----29.96- 41.0 44.2- 34.84--
2023-10-04 2020NNE 19.4-----29.96- 41.0 44.2- 34.84--
2023-10-04 2010NNE 19.4-----29.96- 41.0 44.2- 34.84--
2023-10-04 2000NNE 21.4-----29.96- 40.8 44.2- 34.84--
2023-10-04 1950NNE 19.4-----29.96- 40.8 44.2- 34.84--
2023-10-04 1940NNE 17.5-----29.96- 40.5 44.2- 34.84--
2023-10-04 1930NNE 17.5-----29.96- 39.9 44.2- 34.84--
2023-10-04 1920NNE 19.4-----29.96- 39.9 44.2- 34.84--
2023-10-04 1910 NE 19.4-----29.96- 39.7 44.2- 34.84--
2023-10-04 1900NNE 21.4-----29.96- 40.1 44.2- 34.84--
2023-10-04 1850NNE 21.4-----29.96- 40.5 44.2- 34.84--
2023-10-04 1840NNE 19.4-----29.96- 40.6 44.2- 34.84--
2023-10-04 1830NNE 21.4-----29.96- 40.6 44.2- 34.84--
2023-10-04 1820NNE 21.4-----29.96- 41.0 44.2- 34.84--
2023-10-04 1810NNE 19.4-----29.96- 41.2 44.2- 34.84--
2023-10-04 1800 NE 21.4-----29.96- 41.0 44.2- 34.84--
2023-10-04 1750NNE 23.3-----29.96- 41.2 44.2- 34.84--
2023-10-04 1740NNE 21.4-----29.96- 41.5 44.2- 34.84--
2023-10-04 1730NNE 19.4-----29.95- 41.4 44.2- 34.84--
2023-10-04 1720NNE 21.4-----29.95- 41.4 44.2- 34.84--
2023-10-04 1710 NE 21.4-----29.95- 41.5 44.2- 34.84--
2023-10-04 1700 NE 19.4-----29.96- 41.5 44.2- 34.84--
2023-10-04 1650 NE 19.4-----29.95- 41.5 44.2- 34.84--
2023-10-04 1640NNE 21.4-----29.95- 41.7 44.4- 34.84--
2023-10-04 1630 NE 21.4-----29.94- 41.7 44.4- 34.84--
2023-10-04 1620NNE 19.4-----29.95- 41.5 44.4- 34.84--
2023-10-04 1610NNE 17.5-----29.95- 40.5 44.4- 34.84--
2023-10-04 1600 NE 21.4-----29.95- 41.2 44.4- 34.84--
2023-10-04 1550 NE 17.5-----29.95- 41.7 44.4- 34.84--
2023-10-04 1540 NE 19.4-----29.95- 41.5 44.4- 34.84--
2023-10-04 1530 NE 21.4-----29.95- 41.5 44.4- 34.84--
2023-10-04 1520 NE 21.4-----29.95- 41.9 44.4- 34.84--
2023-10-04 1510 NE 19.4-----29.95- 42.1 44.4- 34.84--
2023-10-04 1500 NE 21.4-----29.94- 42.3 44.4- 34.84--
2023-10-04 1450 NE 19.4-----29.94- 42.4 44.4- 34.84--
2023-10-04 1440 NE 19.4-----29.94- 42.4 44.4- 34.84--
2023-10-04 1430 NE 19.4-----29.94- 42.4 44.4- 34.84--
2023-10-04 1420 NE 19.4-----29.95- 42.4 44.4- 34.84--
2023-10-04 1410NNE 19.4-----29.95- 42.3 44.4- 34.84--
2023-10-04 1400 NE 19.4-----29.95- 42.4 44.4- 34.84--
2023-10-04 1350 NE 19.4-----29.95- 42.4 44.2- 34.84--
2023-10-04 1340 NE 19.4-----29.95- 42.6 44.2- 34.84--
2023-10-04 1330 NE 17.5-----29.94- 42.6 44.2- 34.84--
2023-10-04 1320ENE 21.4-----29.94- 42.6 44.2- 34.84--
2023-10-04 1310 NE 21.4-----29.93- 42.6 44.2- 34.84--
2023-10-04 1300 NE 19.4-----29.93- 42.6 44.2- 34.84--
2023-10-04 1250 NE 19.4-----29.93- 42.6 44.2- 34.84--
2023-10-04 1240 NE 19.4-----29.93- 42.8 44.2- 34.84--
2023-10-04 1230ENE 19.4-----29.93- 42.8 44.2- 34.84--
2023-10-04 1220 NE 17.5-----29.93- 42.8 44.2- 34.84--
2023-10-04 1210ENE 19.4-----29.93- 42.8 44.2- 34.84--
2023-10-04 1200ENE 21.4-----29.93- 42.6 44.2- 34.84--
2023-10-04 1150ENE 21.4-----29.92- 42.6 44.2- 34.84--
2023-10-04 1140ENE 21.4-----29.92- 42.4 44.2- 34.84--
2023-10-04 1130ENE 21.4-----29.92- 42.4 44.2- 34.84--
2023-10-04 1120ENE 19.4-----29.92- 42.4 44.2- 34.84--
2023-10-04 1110ENE 19.4-----29.91- 42.4 44.2- 34.84--
2023-10-04 1100 NE 19.4-----29.91- 42.4 44.2- 34.84--
2023-10-04 1050ENE 19.4-----29.91- 42.4 44.2- 34.84--
2023-10-04 1040ENE 19.4-----29.91- 42.3 44.2- 34.84--
2023-10-04 1030ENE 19.4-----29.91- 42.3 44.2- 34.84--
2023-10-04 1020ENE 19.4-----29.91- 42.3 44.2- 34.84--
2023-10-04 1010ENE 19.4-----29.90- 41.7 44.2- 34.84--
2023-10-04 1000ENE 21.4-----29.90- 41.4 44.2- 34.84--
2023-10-04 0950ENE 19.4-----29.91- 40.8 44.2- 34.84--
2023-10-04 0940ENE 19.4-----29.91- 40.8 44.2- 34.84--
2023-10-04 0930ENE 21.4-----29.90- 41.0 44.2- 34.84--
2023-10-04 0920ENE 21.4-----29.90- 41.4 44.2- 34.84--
2023-10-04 0910ENE 19.4-----29.89- 41.5 44.2- 34.84--
2023-10-04 0900ENE 19.4-----29.89+0.04 41.7 44.2- 34.84--
2023-10-04 0850ENE 19.4-----29.89- 41.9 44.2- 34.84--
2023-10-04 0840ENE 19.4-----29.89- 41.9 44.4- 34.84--
2023-10-04 0830ENE 19.4-----29.89- 42.1 44.4- 34.84--
2023-10-04 0820ENE 19.4-----29.88- 42.1 44.4- 34.84--
2023-10-04 0810ENE 17.5-----29.88- 42.1 44.2- 34.84--
2023-10-04 0800ENE 17.5-----29.88+0.06 42.3 44.2- 34.84--
2023-10-04 0750ENE 17.5-----29.88- 42.3 44.2- 34.84--
2023-10-04 0740ENE 15.5-----29.87- 41.7 44.2- 34.83--
2023-10-04 0730ENE 17.5-----29.87- 41.2 44.2- 34.83--
2023-10-04 0720ENE 17.5-----29.88- 41.2 44.2- 34.83--
2023-10-04 0710ENE 17.5-----29.87- 42.1 44.2- 34.83--
2023-10-04 0700ENE 17.5-----29.87- 42.4 44.2- 34.83--
2023-10-04 0650ENE 19.4-----29.86- 42.4 44.2- 34.83--
2023-10-04 0640ENE 19.4-----29.86- 42.1 44.2- 34.83--
2023-10-04 0630ENE 19.4-----29.86- 42.4 44.4- 34.83--
2023-10-04 0620ENE 19.4-----29.85- 42.6 44.4- 34.83--
2023-10-04 0610ENE 19.4-----29.85- 42.6 44.4- 34.83--
2023-10-04 0600ENE 19.4-----29.85- 42.8 44.4- 34.83--
2023-10-04 0550ENE 19.4-----29.84- 43.2 44.4- 34.83--
2023-10-04 0540ENE 19.4-----29.84- 43.2 44.4- 34.83--
2023-10-04 0530ENE 21.4-----29.84- 43.0 44.4- 34.83--
2023-10-04 0520ENE 19.4-----29.83- 43.0 44.4- 34.83--
2023-10-04 0510ENE 21.4-----29.83- 43.0 44.4- 34.83--
2023-10-04 0500ENE 17.5-----29.82- 43.2 44.4- 34.83--
2023-10-04 0450ENE 19.4-----29.82- 43.2 44.4- 34.83--
2023-10-04 0440ENE 17.5-----29.82- 43.2 44.4- 34.83--
2023-10-04 0430ENE 19.4-----29.82- 43.0 44.4- 34.83--
2023-10-04 0420ENE 17.5-----29.82- 42.6 44.4- 34.83--
2023-10-04 0410ENE 19.4-----29.82- 42.4 44.4- 34.83--
2023-10-04 0400ENE 21.4-----29.82- 42.4 44.4- 34.83--
2023-10-04 0350ENE 19.4-----29.82- 42.6 44.4- 34.83--
2023-10-04 0340ENE 19.4-----29.81- 42.6 44.4- 34.83--
2023-10-04 0330ENE 19.4-----29.81- 42.4 44.4- 34.83--
2023-10-04 0320ENE 19.4-----29.81- 42.4 44.4- 34.83--
2023-10-04 0310ENE 19.4-----29.81- 42.6 44.4- 34.83--
2023-10-04 0300 NE 19.4-----29.81- 42.8 44.4- 34.83--
2023-10-04 0250ENE 19.4-----29.81- 42.8 44.4- 34.83--

Ocean Conditions at 44078 as of
0110 GMT on 10/05/2023:

These oceanographic data are displayed in rounded times.

     

Click on the graph icon in the table below to see a time series plot of the last five days of that observation.

Depth (DEPTH): 3.0 ft
5-day plot - Ocean Temperature Ocean Temperature (OTMP):44.33 °F
5-day plot - Salinity Salinity (SAL):34.85 psu
Previous observations
TIME
(GMT)
DEPTH
ft
5-day plot - Ocean Temperature
OTMP
°F
5-day plot - Conductivity
COND
mS/cm
5-day plot - Salinity
SAL
psu
5-day plot - Oxygen Concentration
O2%
%
5-day plot - Oxygen Concentration
O2PPM
ppm
5-day plot - Chlorophyll
CLCON
ug/l
5-day plot - Turbidity
TURB
FTU
5-day plot - pH
PH
 
5-day plot - Eh
EH
mv
2023-10-05 0100 3.044.33-34.85------
2023-10-05 0050 3.044.33-34.85------
2023-10-05 0040 3.044.31-34.85------
2023-10-05 0030 3.044.31-34.85------
2023-10-05 0020 3.044.29-34.85------
2023-10-05 0010 3.044.29-34.85------
2023-10-05 0000 3.044.29-34.84------
2023-10-04 2350 3.044.28-34.84------
2023-10-04 2340 3.044.28-34.84------
2023-10-04 2330 3.044.28-34.84------
2023-10-04 2320 3.044.28-34.84------
2023-10-04 2310 3.044.28-34.84------
2023-10-04 2300 3.044.28-34.84------
2023-10-04 2250 3.044.28-34.84------
2023-10-04 2240 3.044.28-34.84------
2023-10-04 2230 3.044.28-34.84------
2023-10-04 2220 3.044.26-34.84------
2023-10-04 2210 3.044.28-34.84------
2023-10-04 2200 3.044.28-34.84------
2023-10-04 2150 3.044.28-34.84------
2023-10-04 2140 3.044.28-34.84------
2023-10-04 2130 3.044.29-34.84------
2023-10-04 2120 3.044.29-34.84------
2023-10-04 2110 3.044.31-34.84------
2023-10-04 2100 3.044.31-34.84------
2023-10-04 2050 3.044.29-34.84------
2023-10-04 2040 3.044.29-34.84------
2023-10-04 2030 3.044.31-34.84------
2023-10-04 2020 3.044.29-34.84------
2023-10-04 2010 3.044.29-34.84------
2023-10-04 2000 3.044.29-34.84------
2023-10-04 1950 3.044.29-34.84------
2023-10-04 1940 3.044.31-34.84------
2023-10-04 1930 3.044.31-34.84------
2023-10-04 1920 3.044.29-34.84------
2023-10-04 1910 3.044.29-34.84------
2023-10-04 1900 3.044.29-34.84------
2023-10-04 1850 3.044.29-34.84------
2023-10-04 1840 3.044.29-34.84------
2023-10-04 1830 3.044.29-34.84------
2023-10-04 1820 3.044.31-34.84------
2023-10-04 1810 3.044.31-34.84------
2023-10-04 1800 3.044.31-34.84------
2023-10-04 1750 3.044.31-34.84------
2023-10-04 1740 3.044.31-34.84------
2023-10-04 1730 3.044.31-34.84------
2023-10-04 1720 3.044.31-34.84------
2023-10-04 1710 3.044.33-34.84------
2023-10-04 1700 3.044.33-34.84------
2023-10-04 1650 3.044.33-34.84------
2023-10-04 1640 3.044.33-34.84------
2023-10-04 1630 3.044.35-34.84------
2023-10-04 1620 3.044.35-34.84------
2023-10-04 1610 3.044.35-34.84------
2023-10-04 1600 3.044.37-34.84------
2023-10-04 1550 3.044.37-34.84------
2023-10-04 1540 3.044.35-34.84------
2023-10-04 1530 3.044.35-34.84------
2023-10-04 1520 3.044.35-34.84------
2023-10-04 1510 3.044.35-34.84------
2023-10-04 1500 3.044.35-34.84------
2023-10-04 1450 3.044.35-34.84------
2023-10-04 1440 3.044.35-34.84------
2023-10-04 1430 3.044.33-34.84------
2023-10-04 1420 3.044.33-34.84------
2023-10-04 1410 3.044.33-34.84------
2023-10-04 1400 3.044.33-34.84------
2023-10-04 1350 3.044.33-34.84------
2023-10-04 1340 3.044.33-34.84------
2023-10-04 1330 3.044.31-34.84------
2023-10-04 1320 3.044.31-34.84------
2023-10-04 1310 3.044.31-34.84------
2023-10-04 1300 3.044.29-34.84------
2023-10-04 1250 3.044.29-34.84------
2023-10-04 1240 3.044.29-34.84------
2023-10-04 1230 3.044.28-34.84------
2023-10-04 1220 3.044.28-34.84------
2023-10-04 1210 3.044.28-34.84------
2023-10-04 1200 3.044.28-34.84------
2023-10-04 1150 3.044.28-34.84------
2023-10-04 1140 3.044.28-34.84------
2023-10-04 1130 3.044.28-34.84------
2023-10-04 1120 3.044.28-34.84------
2023-10-04 1110 3.044.28-34.84------
2023-10-04 1100 3.044.28-34.84------
2023-10-04 1050 3.044.28-34.84------
2023-10-04 1040 3.044.28-34.84------
2023-10-04 1030 3.044.28-34.84------
2023-10-04 1020 3.044.29-34.84------
2023-10-04 1010 3.044.29-34.84------
2023-10-04 1000 3.044.29-34.84------
2023-10-04 0950 3.044.29-34.84------
2023-10-04 0940 3.044.31-34.84------
2023-10-04 0930 3.044.33-34.84------
2023-10-04 0920 3.044.33-34.84------
2023-10-04 0910 3.044.33-34.84------
2023-10-04 0900 3.044.33-34.84------
2023-10-04 0850 3.044.33-34.84------
2023-10-04 0840 3.044.33-34.84------
2023-10-04 0830 3.044.33-34.84------
2023-10-04 0820 3.044.33-34.84------
2023-10-04 0810 3.044.33-34.84------
2023-10-04 0800 3.044.31-34.84------
2023-10-04 0750 3.044.29-34.84------
2023-10-04 0740 3.044.29-34.83------
2023-10-04 0730 3.044.29-34.83------
2023-10-04 0720 3.044.31-34.83------
2023-10-04 0710 3.044.31-34.83------
2023-10-04 0700 3.044.31-34.83------
2023-10-04 0650 3.044.33-34.83------
2023-10-04 0640 3.044.33-34.83------
2023-10-04 0630 3.044.33-34.83------
2023-10-04 0620 3.044.33-34.83------
2023-10-04 0610 3.044.33-34.83------
2023-10-04 0600 3.044.33-34.83------
2023-10-04 0550 3.044.35-34.83------
2023-10-04 0540 3.044.35-34.83------
2023-10-04 0530 3.044.35-34.83------
2023-10-04 0520 3.044.35-34.83------
2023-10-04 0510 3.044.35-34.83------
2023-10-04 0500 3.044.35-34.83------
2023-10-04 0450 3.044.35-34.83------
2023-10-04 0440 3.044.35-34.83------
2023-10-04 0430 3.044.35-34.83------
2023-10-04 0420 3.044.35-34.83------
2023-10-04 0410 3.044.35-34.83------
2023-10-04 0400 3.044.37-34.83------
2023-10-04 0350 3.044.35-34.83------
2023-10-04 0340 3.044.35-34.83------
2023-10-04 0330 3.044.35-34.83------
2023-10-04 0320 3.044.35-34.83------
2023-10-04 0310 3.044.35-34.83------
2023-10-04 0300 3.044.35-34.83------
2023-10-04 0250 3.044.35-34.83------

Solar Radiation Conditions at 44078 as of
0110 GMT on 10/05/2023:
     

Click on the graph icon in the table below to see a time series plot of the last five days of that observation.

5-day plot - Short Wave Radiation 1 Short Wave Radiation 1 (SRAD1): 7.6watts/meter2
5-day plot - Long Wave Radiation Long Wave Radiation (LWRAD): 317.8watts/meter2
Previous observations
TIME
(GMT)
5-day plot - Short Wave Radiation 1
SRAD1
w/m2
5-day plot - Short Wave Radiation 2
SRAD2
w/m2
5-day plot - Long Wave Radiation
LRAD
w/m2
2023-10-05 0100 7.6- 315.8
2023-10-05 0050 8.1- 314.7
2023-10-05 0040 8.1- 323.9
2023-10-05 0030 7.8- 324.5
2023-10-05 0020 8.0- 309.7
2023-10-05 0010 8.1- 325.4
2023-10-05 0000 8.1- 324.2
2023-10-04 2350 7.6- 322.3
2023-10-04 2340 7.0- 320.4
2023-10-04 2330 6.6- 316.1
2023-10-04 2320 6.3- 315.4
2023-10-04 2310 6.5- 307.0
2023-10-04 2300 7.2- 308.7
2023-10-04 2250 7.0- 315.6
2023-10-04 2240 6.3- 269.9
2023-10-04 2230 5.8- 252.9
2023-10-04 2220 6.5- 290.7
2023-10-04 2210 7.1- 311.9
2023-10-04 2200 7.2- 312.1
2023-10-04 2150 7.2- 312.4
2023-10-04 2140 7.2- 310.9
2023-10-04 2130 7.1- 310.9
2023-10-04 2120 7.1- 311.2
2023-10-04 2110 7.2- 311.1
2023-10-04 2100 7.0- 303.8
2023-10-04 2050 7.1- 305.9
2023-10-04 2040 7.0- 309.9
2023-10-04 2030 7.1- 297.3
2023-10-04 2020 7.4- 312.5
2023-10-04 2010 8.3- 306.2
2023-10-04 2000 10.3- 278.9
2023-10-04 1950 13.7- 274.1
2023-10-04 1940 17.9- 266.5
2023-10-04 1930 29.5- 254.7
2023-10-04 1920 30.7- 283.7
2023-10-04 1910 34.2- 266.0
2023-10-04 1900 71.1- 282.9
2023-10-04 1850 112.4- 268.3
2023-10-04 1840 111.3- 262.4
2023-10-04 1830 160.5- 248.9
2023-10-04 1820 155.2- 259.1
2023-10-04 1810 201.3- 250.5
2023-10-04 1800 275.6- 253.0
2023-10-04 1750 275.9- 260.6
2023-10-04 1740 307.7- 260.8
2023-10-04 1730 209.4- 255.6
2023-10-04 1720 151.9- 250.9
2023-10-04 1710 212.4- 267.9
2023-10-04 1700 275.1- 255.1
2023-10-04 1650 198.2- 282.0
2023-10-04 1640 296.6- 293.1
2023-10-04 1630 229.5- 301.1
2023-10-04 1620 273.0- 302.8
2023-10-04 1610 183.0- 299.3
2023-10-04 1600 313.4- 309.4
2023-10-04 1550 488.2- 264.9
2023-10-04 1540 472.1- 261.7
2023-10-04 1530 453.6- 250.0
2023-10-04 1520 443.7- 250.1
2023-10-04 1510 264.3- 263.6
2023-10-04 1500 287.7- 285.0
2023-10-04 1450 456.1- 263.8
2023-10-04 1440 265.3- 269.4
2023-10-04 1430 312.4- 271.6
2023-10-04 1420 309.3- 288.8
2023-10-04 1410 249.6- 279.9
2023-10-04 1400 389.9- 270.9
2023-10-04 1350 272.8- 280.2
2023-10-04 1340 250.6- 276.7
2023-10-04 1330 317.2- 263.5
2023-10-04 1320 170.1- 270.9
2023-10-04 1310 125.3- 279.8
2023-10-04 1300 186.2- 279.2
2023-10-04 1250 266.2- 262.1
2023-10-04 1240 192.8- 262.1
2023-10-04 1230 152.7- 279.0
2023-10-04 1220 156.8- 275.8
2023-10-04 1210 169.7- 291.5
2023-10-04 1200 161.9- 292.9
2023-10-04 1150 145.4- 289.9
2023-10-04 1140 137.7- 296.0
2023-10-04 1130 131.9- 307.1
2023-10-04 1120 124.4- 305.6
2023-10-04 1110 109.6- 305.9
2023-10-04 1100 94.9- 307.5
2023-10-04 1050 86.6- 305.5
2023-10-04 1040 70.8- 306.6
2023-10-04 1030 61.7- 310.2
2023-10-04 1020 56.5- 307.5
2023-10-04 1010 50.7- 306.9
2023-10-04 1000 43.5- 308.8
2023-10-04 0950 28.6- 320.5
2023-10-04 0940 29.5- 316.4
2023-10-04 0930 26.3- 308.8
2023-10-04 0920 21.8- 305.8
2023-10-04 0910 17.1- 302.8
2023-10-04 0900 12.4- 311.9
2023-10-04 0850 9.9- 313.4
2023-10-04 0840 8.3- 316.9
2023-10-04 0830 7.7- 316.5
2023-10-04 0820 7.5- 312.8
2023-10-04 0810 7.5- 313.4
2023-10-04 0800 7.7- 323.7
2023-10-04 0750 7.9- 323.4
2023-10-04 0740 7.8- 325.2
2023-10-04 0730 7.4- 323.6
2023-10-04 0720 6.6- 325.5
2023-10-04 0710 6.8- 326.8
2023-10-04 0700 6.8- 326.5
2023-10-04 0650 7.1- 322.7
2023-10-04 0640 6.5- 322.3
2023-10-04 0630 6.4- 324.9
2023-10-04 0620 7.0- 320.3
2023-10-04 0610 6.8- 320.8
2023-10-04 0600 6.6- 320.4
2023-10-04 0550 6.8- 322.6
2023-10-04 0540 7.2- 321.5
2023-10-04 0530 7.3- 321.1
2023-10-04 0520 7.1- 322.2
2023-10-04 0510 7.2- 323.9
2023-10-04 0500 7.4- 325.5
2023-10-04 0450 7.4- 325.6
2023-10-04 0440 7.6- 325.9
2023-10-04 0430 7.6- 328.7
2023-10-04 0420 7.4- 330.6
2023-10-04 0410 7.2- 328.2
2023-10-04 0400 7.3- 326.9
2023-10-04 0350 7.5- 329.9
2023-10-04 0340 7.3- 330.6
2023-10-04 0330 7.3- 329.2
2023-10-04 0320 7.3- 330.6
2023-10-04 0310 7.1- 332.7
2023-10-04 0300 6.9- 332.5
2023-10-04 0250 6.9- 332.2